Time,TemperatureF,DewpointF,PressureIn,WindDirection,WindDirectionDegrees,WindSpeedMPH,WindSpeedGustMPH,Humidity,HourlyPrecipIn,Conditions,Clouds,dailyrainin,SoftwareType,DateUTC
2014-01-22 00:22:00,12.0,8.0,29.82,NNW,344,1.0,-999.0,85,-99.99,,,-99.99,,2014-01-22 05:22:00,
2014-01-22 00:42:00,12.0,8.0,29.83,NW,317,1.0,-999.0,84,-99.99,,,-99.99,,2014-01-22 05:42:00,
2014-01-22 00:52:00,12.0,8.0,29.82,NNE,18,1.0,-999.0,84,-99.99,,,-99.99,,2014-01-22 05:52:00,
2014-01-22 01:22:00,11.0,5.0,29.82,North,355,3.0,-999.0,75,-99.99,,,-99.99,,2014-01-22 06:22:00,
2014-01-22 01:42:00,11.0,5.0,29.81,NNW,338,3.0,-999.0,75,-99.99,,,-99.99,,2014-01-22 06:42:00,
2014-01-22 01:52:00,11.0,4.0,29.81,North,360,3.0,-999.0,73,-99.99,,,-99.99,,2014-01-22 06:52:00,
2014-01-22 02:22:00,11.0,3.0,29.81,NW,326,3.0,-999.0,71,-99.99,,,-99.99,,2014-01-22 07:22:00,
2014-01-22 02:42:00,10.0,3.0,29.82,NNE,30,4.0,-999.0,71,-99.99,,,-99.99,,2014-01-22 07:42:00,
2014-01-22 02:53:00,10.0,3.0,29.80,WNW,296,3.0,-999.0,72,-99.99,,,-99.99,,2014-01-22 07:53:00,
2014-01-22 03:22:00,8.0,1.0,29.81,WNW,302,4.0,-999.0,71,-99.99,,,-99.99,,2014-01-22 08:22:00,
2014-01-22 03:42:00,8.0,1.0,29.81,NW,313,4.0,-999.0,71,-99.99,,,-99.99,,2014-01-22 08:42:00,
2014-01-22 03:52:00,7.0,0.0,29.81,NNW,331,4.0,-999.0,71,-99.99,,,-99.99,,2014-01-22 08:52:00,
2014-01-22 04:11:00,7.0,0.0,29.82,NNW,338,4.0,-999.0,71,-99.99,,,-99.99,,2014-01-22 09:11:00,
2014-01-22 04:22:00,6.0,-1.0,29.82,NW,314,4.0,-999.0,72,-99.99,,,-99.99,,2014-01-22 09:22:00,
2014-01-22 04:43:00,5.0,-2.0,29.82,WNW,294,4.0,-999.0,71,-99.99,,,-99.99,,2014-01-22 09:43:00,
2014-01-22 04:53:00,5.0,-2.0,29.84,NW,312,4.0,-999.0,72,-99.99,,,-99.99,,2014-01-22 09:53:00,
2014-01-22 05:23:00,4.0,-3.0,29.84,NW,320,4.0,-999.0,71,-99.99,,,-99.99,,2014-01-22 10:23:00,
2014-01-22 05:42:00,4.0,-3.0,29.84,NNW,331,3.0,-999.0,71,-99.99,,,-99.99,,2014-01-22 10:42:00,
2014-01-22 05:53:00,3.0,-5.0,29.84,NW,309,4.0,-999.0,70,-99.99,,,-99.99,,2014-01-22 10:53:00,
2014-01-22 06:22:00,2.0,-6.0,29.84,WNW,300,4.0,-999.0,70,-99.99,,,-99.99,,2014-01-22 11:22:00,
2014-01-22 06:42:00,2.0,-6.0,29.84,NW,321,4.0,-999.0,70,-99.99,,,-99.99,,2014-01-22 11:42:00,
2014-01-22 06:53:00,2.0,-6.0,29.85,WNW,302,4.0,-999.0,69,-99.99,,,-99.99,,2014-01-22 11:53:00,
2014-01-22 07:22:00,2.0,-6.0,29.85,NNW,330,3.0,-999.0,68,-99.99,,,-99.99,,2014-01-22 12:22:00,
2014-01-22 07:42:00,2.0,-6.0,29.85,NW,315,4.0,-999.0,67,-99.99,,,-99.99,,2014-01-22 12:42:00,
2014-01-22 07:52:00,2.0,-6.0,29.85,WNW,294,2.0,-999.0,68,-99.99,,,-99.99,,2014-01-22 12:52:00,
2014-01-22 08:11:00,2.0,-6.0,29.85,NW,307,4.0,-999.0,67,-99.99,,,-99.99,,2014-01-22 13:11:00,
2014-01-22 08:22:00,1.0,-7.0,29.85,NW,306,3.0,-999.0,68,-99.99,,,-99.99,,2014-01-22 13:22:00,
2014-01-22 08:42:00,2.0,-6.0,29.85,NW,321,3.0,-999.0,69,-99.99,,,-99.99,,2014-01-22 13:42:00,
2014-01-22 08:52:00,2.0,-6.0,29.86,West,277,3.0,-999.0,68,-99.99,,,-99.99,,2014-01-22 13:52:00,
2014-01-22 09:12:00,2.0,-6.0,29.86,NW,312,3.0,-999.0,67,-99.99,,,-99.99,,2014-01-22 14:12:00,
2014-01-22 09:22:00,3.0,-5.0,29.87,WNW,298,4.0,-999.0,67,-99.99,,,-99.99,,2014-01-22 14:22:00,
2014-01-22 09:42:00,3.0,-5.0,29.88,NW,312,5.0,-999.0,67,-99.99,,,-99.99,,2014-01-22 14:42:00,
2014-01-22 09:52:00,4.0,-5.0,29.88,NW,325,4.0,-999.0,66,-99.99,,,-99.99,,2014-01-22 14:52:00,
2014-01-22 10:12:00,4.0,-5.0,29.88,WNW,297,4.0,-999.0,66,-99.99,,,-99.99,,2014-01-22 15:12:00,
2014-01-22 10:22:00,5.0,-5.0,29.88,NW,325,5.0,-999.0,63,-99.99,,,-99.99,,2014-01-22 15:22:00,
2014-01-22 10:43:00,5.0,-5.0,29.89,NW,311,5.0,-999.0,63,-99.99,,,-99.99,,2014-01-22 15:43:00,
2014-01-22 10:54:00,6.0,-4.0,29.89,NW,306,5.0,-999.0,63,-99.99,,,-99.99,,2014-01-22 15:54:00,
2014-01-22 11:13:00,6.0,-4.0,29.88,NW,325,5.0,-999.0,62,-99.99,,,-99.99,,2014-01-22 16:13:00,
2014-01-22 11:23:00,7.0,-3.0,29.88,NE,36,6.0,-999.0,62,-99.99,,,-99.99,,2014-01-22 16:23:00,
2014-01-22 11:42:00,7.0,-3.0,29.88,NNW,333,5.0,-999.0,62,-99.99,,,-99.99,,2014-01-22 16:42:00,
2014-01-22 11:53:00,8.0,-3.0,29.86,NW,326,5.0,-999.0,60,-99.99,,,-99.99,,2014-01-22 16:53:00,
2014-01-22 12:12:00,8.0,-3.0,29.86,NNW,344,5.0,-999.0,59,-99.99,,,-99.99,,2014-01-22 17:12:00,
2014-01-22 12:23:00,9.0,-2.0,29.86,West,277,4.0,-999.0,61,-99.99,,,-99.99,,2014-01-22 17:23:00,
2014-01-22 12:52:00,10.0,-1.0,29.86,NNW,341,4.0,-999.0,59,-99.99,,,-99.99,,2014-01-22 17:52:00,
2014-01-22 13:22:00,11.0,-1.0,29.85,NW,307,4.0,-999.0,57,-99.99,,,-99.99,,2014-01-22 18:22:00,
2014-01-22 13:42:00,12.0,0.0,29.85,West,267,1.0,-999.0,57,-99.99,,,-99.99,,2014-01-22 18:42:00,
2014-01-22 13:52:00,12.0,-1.0,29.85,West,269,2.0,-999.0,55,-99.99,,,-99.99,,2014-01-22 18:52:00,
2014-01-22 14:22:00,13.0,0.0,29.86,NW,315,3.0,-999.0,54,-99.99,,,-99.99,,2014-01-22 19:22:00,
2014-01-22 14:42:00,13.0,-1.0,29.86,WSW,254,4.0,-999.0,52,-99.99,,,-99.99,,2014-01-22 19:42:00,
2014-01-22 14:52:00,13.0,-1.0,29.86,West,279,3.0,-999.0,53,-99.99,,,-99.99,,2014-01-22 19:52:00,
2014-01-22 15:22:00,13.0,-1.0,29.87,NW,313,4.0,-999.0,52,-99.99,,,-99.99,,2014-01-22 20:22:00,
2014-01-22 15:42:00,13.0,-2.0,29.88,NW,314,5.0,-999.0,50,-99.99,,,-99.99,,2014-01-22 20:42:00,
2014-01-22 15:52:00,14.0,-1.0,29.88,North,11,5.0,-999.0,50,-99.99,,,-99.99,,2014-01-22 20:52:00,
2014-01-22 16:22:00,14.0,-1.0,29.89,WNW,296,3.0,-999.0,51,-99.99,,,-99.99,,2014-01-22 21:22:00,
2014-01-22 16:44:00,14.0,-1.0,29.89,NW,318,5.0,-999.0,50,-99.99,,,-99.99,,2014-01-22 21:44:00,
2014-01-22 16:53:00,14.0,-1.0,29.90,West,268,4.0,-999.0,51,-99.99,,,-99.99,,2014-01-22 21:53:00,
2014-01-22 17:23:00,13.0,-2.0,29.91,NW,311,3.0,-999.0,51,-99.99,,,-99.99,,2014-01-22 22:23:00,
2014-01-22 17:53:00,12.0,-1.0,29.92,WNW,289,0.0,-999.0,55,-99.99,,,-99.99,,2014-01-22 22:53:00,
2014-01-22 18:22:00,12.0,0.0,29.93,WNW,291,0.0,-999.0,57,-99.99,,,-99.99,,2014-01-22 23:22:00,
2014-01-22 18:42:00,11.0,-1.0,29.94,NW,309,0.0,-999.0,58,-99.99,,,-99.99,,2014-01-22 23:42:00,
2014-01-22 18:52:00,11.0,0.0,29.95,WNW,284,0.0,-999.0,59,-99.99,,,-99.99,,2014-01-22 23:52:00,
2014-01-22 19:12:00,11.0,0.0,29.95,WNW,285,0.0,-999.0,60,-99.99,,,-99.99,,2014-01-23 00:12:00,
2014-01-22 19:22:00,11.0,0.0,29.95,WNW,295,0.0,-999.0,60,-99.99,,,-99.99,,2014-01-23 00:22:00,
2014-01-22 19:42:00,10.0,-1.0,29.96,NW,317,0.0,-999.0,61,-99.99,,,-99.99,,2014-01-23 00:42:00,
2014-01-22 22:22:00,9.0,-1.0,30.00,WNW,291,0.0,-999.0,63,-99.99,,,-99.99,,2014-01-23 03:22:00,
2014-01-22 22:43:00,9.0,-1.0,30.00,NW,309,0.0,-999.0,62,-99.99,,,-99.99,,2014-01-23 03:43:00,
2014-01-22 22:53:00,9.0,-1.0,30.01,NW,309,0.0,-999.0,62,-99.99,,,-99.99,,2014-01-23 03:53:00,
2014-01-22 23:23:00,9.0,-1.0,30.01,NW,309,0.0,-999.0,62,-99.99,,,-99.99,,2014-01-23 04:23:00,
2014-01-22 23:42:00,8.0,-2.0,30.01,NW,309,0.0,-999.0,62,-99.99,,,-99.99,,2014-01-23 04:42:00,
2014-01-22 23:53:00,8.0,-3.0,30.00,NW,313,0.0,-999.0,60,-99.99,,,-99.99,,2014-01-23 04:53:00,